Weather History for Pescara, Italy

Change the Weather History Date:

Friday, March 22, 2013

  Actual Average Record
Temperature  
Mean Temperature 46 °F -  
Max Temperature 59 °F 62 °F 78 °F (2001)
Min Temperature 33 °F 44 °F 32 °F (1997)
Degree Days  
Heating Degree Days 19    
Moisture  
Dew Point 36 °F    
Average Humidity 64    
Maximum Humidity 81    
Minimum Humidity 39    
Precipitation  
Precipitation 0.00 in 0.08 in - ()
Sea Level Pressure  
Sea Level Pressure 29.90 in    
Wind  
Wind Speed 5 mph ()    
Max Wind Speed 10 mph    
Max Gust Speed -    
Averages and records for this station are not official NWS values.
T = Trace of Precipitation, MM = Missing Value Source: Averaged Metar Reports

Daily Weather History Graph

Daily Weather History Graph

Search for Another Location

Airport:

Trip Planner

Search our weather history database for the weather conditions in past years. The results will help you decide how hot, cold, wet, or windy it might be!

Date:

Astronomy

Mar. 22, 2013 Rise Set
Actual Time 6:03 AM CET 6:17 PM CET
Civil Twilight 5:35 AM CET 6:45 PM CET
Nautical Twilight 5:02 AM CET 7:18 PM CET
Astronomical Twilight 4:28 AM CET 7:52 PM CET
Moon 1:23 PM CET (3/22) 2:58 AM CET (3/22)
Length of Visible Light 13h 10m
Length of Day
12h 14m
Waxing Gibbous, 75% of the Moon is Illuminated
Mar 22
Waxing Gibbous
Mar 27
Full
Apr 3
Last Quarter
Apr 10
New
Apr 18
First Quarter

Hourly Weather History & Observations

Time (CET) Temp. Windchill Dew Point Humidity Pressure Visibility Wind Dir Wind Speed Gust Speed Precip Events Conditions
12:50 AM 37.4 °F 32.1 °F 30.2 °F 75% 29.92 in - SSW 6.9 mph - N/A   Clear
1:50 AM 37.4 °F 32.1 °F 30.2 °F 75% 29.92 in - SSW 6.9 mph - N/A   Clear
2:50 AM 37.4 °F 33.8 °F 30.2 °F 75% 29.89 in - SSW 4.6 mph - N/A   Clear
3:50 AM 37.4 °F 32.8 °F 30.2 °F 75% 29.89 in - South 5.8 mph - N/A   Clear
4:50 AM 35.6 °F 32.8 °F 28.4 °F 75% 29.89 in - Variable 3.5 mph - N/A   Clear
5:50 AM 33.8 °F 29.6 °F 26.6 °F 75% 29.86 in - SSW 4.6 mph - N/A   Clear
6:50 AM 35.6 °F 30.7 °F 28.4 °F 75% 29.89 in - SSW 5.8 mph - N/A   Clear
7:50 AM 44.6 °F 42.2 °F 39.2 °F 81% 29.89 in - SW 4.6 mph - N/A   Clear
8:50 AM 53.6 °F - 39.2 °F 58% 29.86 in - Variable 2.3 mph - N/A   Clear
9:50 AM 59.0 °F - 35.6 °F 42% 29.89 in - Variable 3.5 mph - N/A   Clear
10:50 AM 59.0 °F - 33.8 °F 39% 29.89 in - NNE 6.9 mph - N/A   Clear
11:50 AM 55.4 °F - 35.6 °F 47% 29.92 in - NE 10.4 mph - N/A   Clear
12:50 PM 57.2 °F - 42.8 °F 59% 29.89 in - NE 10.4 mph - N/A   Clear
1:50 PM 57.2 °F - 39.2 °F 51% 29.89 in - ENE 6.9 mph - N/A   Clear
2:50 PM 57.2 °F - 41.0 °F 55% 29.89 in - ENE 9.2 mph - N/A   Clear
3:50 PM 57.2 °F - 42.8 °F 59% 29.89 in - ENE 9.2 mph - N/A   Clear
4:50 PM 57.2 °F - 41.0 °F 55% 29.89 in - East 6.9 mph - N/A   Clear
5:50 PM 55.4 °F - 39.2 °F 54% 29.89 in - East 5.8 mph - N/A   Clear
6:50 PM 53.6 °F - 37.4 °F 54% 29.89 in - Variable 2.3 mph - N/A   Clear
7:50 PM 51.8 °F - 39.2 °F 62% 29.92 in - Variable 2.3 mph - N/A   Clear
8:50 PM 50.0 °F - 37.4 °F 62% 29.95 in - Variable 1.2 mph - N/A   Clear
9:50 PM 42.8 °F 39.3 °F 35.6 °F 76% 29.92 in - SSW 5.8 mph - N/A   Clear
10:50 PM 42.8 °F 41.1 °F 35.6 °F 76% 29.95 in - Variable 3.5 mph - N/A   Clear
11:50 PM 41.0 °F 37.1 °F 33.8 °F 76% 29.92 in - South 5.8 mph - N/A   Clear